This is the latest recevied weather packets stored in our database for station/object WS2Z. If no packets are shown the sender has not sent any weather packets the latest 10 day(s).
| Time | Temp. | Humidity | Pressure | Rain* | Wind** | Luminosity | Snow |
|---|---|---|---|---|---|---|---|
| 1777570747 | 29.44° C | 54% | 1012.9 hPa | 0 mm | - | 890 W/m² | - |
| 1777570443 | 28.89° C | 53% | 1012.7 hPa | 0 mm | - | 890 W/m² | - |
| 1777570139 | 29.44° C | 55% | 1012.7 hPa | 0 mm | - | 843 W/m² | - |
| 1777569835 | 28.89° C | 55% | 1012.8 hPa | 0 mm | - | 913 W/m² | - |
| 1777569531 | 28.89° C | 54% | 1012.7 hPa | 0 mm | - | 673 W/m² | - |
| 1777569228 | 29.44° C | 56% | 1012.8 hPa | 0 mm | - | 715 W/m² | - |
| 1777568924 | 30° C | 51% | 1012.9 hPa | 0 mm | - | 827 W/m² | - |
| 1777568621 | 30° C | 55% | 1013 hPa | 0 mm | - | 887 W/m² | - |
| 1777568318 | 30.56° C | 53% | 1012.6 hPa | 0 mm | - | 875 W/m² | - |
| 1777568014 | 30° C | 54% | 1012.9 hPa | 0 mm | - | 873 W/m² | - |
| 1777567711 | 29.44° C | 55% | 1012.8 hPa | 0 mm | - | 864 W/m² | - |
| 1777567408 | 30.56° C | 52% | 1012.9 hPa | 0 mm | - | 862 W/m² | - |
| 1777567106 | 29.44° C | 56% | 1012.9 hPa | 0 mm | - | 855 W/m² | - |
| 1777566804 | 29.44° C | 55% | 1013.1 hPa | 0 mm | - | 851 W/m² | - |
| 1777566502 | 29.44° C | 55% | 1013.1 hPa | 0 mm | - | 845 W/m² | - |
| 1777566199 | 28.89° C | 56% | 1013.3 hPa | 0 mm | - | 836 W/m² | - |
| 1777565895 | 28.89° C | 58% | 1013.2 hPa | 0 mm | - | 832 W/m² | - |
| 1777565591 | 28.89° C | 57% | 1013.3 hPa | 0 mm | - | 825 W/m² | - |
| 1777565288 | 28.89° C | 57% | 1013.4 hPa | 0 mm | - | 814 W/m² | - |
| 1777564983 | 28.89° C | 56% | 1013.5 hPa | 0 mm | - | 777 W/m² | - |
| 1777564679 | 28.33° C | 59% | 1013.5 hPa | 0 mm | - | 738 W/m² | - |
| 1777564374 | 28.33° C | 58% | 1013.6 hPa | 0 mm | - | 671 W/m² | - |
| 1777564071 | 28.89° C | 60% | 1013.5 hPa | 0 mm | - | 205 W/m² | - |
| 1777563767 | 28.89° C | 60% | 1013.6 hPa | 0 mm | - | 487 W/m² | - |
| 1777563464 | 28.89° C | 62% | 1013.6 hPa | 0 mm | - | 221 W/m² | - |
* Rain latest hour (hover to see other rain measurements)
** Current wind speed in m/s (hover to see current wind gust speed)